Lapse_Rate
5.9 5.8 5.9 6.4 6.7 6.9 7.0 6.9 6.5 6.7 6.8 7.6 7.1 6.0 5.9 6.0 6.3 6.4 6.4 6.5 6.6 6.3 6.3 5.9 6.0 6.2 5.9 5.9 5.7 5.6 5.5 5.7 6.4 6.7 6.4 6.2 5.9 5.4 5.3 5.2 5.7 5.4 5.3 5.4
5.6 5.7 5.7 5.9 6.3 6.4 6.7 6.6 6.5 6.7 7.1 6.7 6.3 6.2 6.3 6.3 6.4 6.5 6.4 6.2 6.2 6.3 6.2 6.1 6.2 6.1 6.0 5.8 5.8 5.7 5.6 5.8 6.0 6.5 6.3 6.2 6.0 5.5 5.5 5.5 5.4 5.5 4.8 5.3
5.5 5.5 5.8 6.1 6.1 6.1 6.1 6.2 6.1 6.5 6.5 6.2 6.2 6.3 6.4 6.3 6.4 6.5 6.5 6.3 6.4 6.4 6.2 6.3 6.2 6.1 6.0 5.8 5.7 5.6 5.7 5.6 5.5 5.4 5.7 5.6 5.8 5.5 5.9 5.6 5.6 5.6 5.6 5.4
5.6 5.3 5.2 5.5 6.1 6.1 6.0 6.0 5.9 6.1 6.2 6.4 6.5 6.5 6.3 6.5 6.4 6.2 6.2 6.0 6.2 6.3 6.2 6.1 6.0 5.9 5.9 6.0 5.9 5.9 5.7 5.6 5.5 5.5 5.5 5.6 5.5 5.7 5.7 6.0 5.8 6.0 5.8 5.5
5.5 5.5 5.2 4.9 5.2 6.0 5.9 6.0 5.9 6.0 6.0 6.2 6.2 6.3 6.1 6.1 6.0 6.0 6.1 6.1 6.0 6.1 5.9 6.1 6.1 6.1 6.1 6.0 5.8 5.6 5.6 5.6 5.7 6.0 6.0 5.8 6.0 6.0 6.0 5.9 5.8 5.8 5.7 5.4
5.8 5.7 5.7 5.5 5.2 5.2 5.7 5.8 5.7 5.9 5.9 6.0 5.9 5.9 5.7 5.7 5.8 5.8 5.7 5.6 5.7 5.8 5.9 6.1 6.1 6.0 5.9 5.7 5.7 5.7 5.7 5.8 5.8 6.1 6.1 6.1 6.2 6.4 6.1 6.0 5.8 5.7 5.5 5.4
6.0 5.8 5.8 5.8 5.6 5.1 5.1 5.7 5.7 5.6 5.4 5.6 5.7 5.7 5.8 5.9 6.0 6.1 6.2 6.2 6.1 6.1 6.0 5.9 6.0 5.9 5.8 5.8 5.8 5.6 5.6 5.6 5.6 5.8 5.9 4.2 6.2 6.1 6.1 6.0 6.0 5.9 5.8 5.8
5.7 6.0 5.9 5.9 5.9 5.7 5.3 5.3 5.5 5.5 5.6 5.4 5.2 5.3 5.3 5.4 5.5 5.5 5.7 5.9 6.1 6.1 6.1 6.1 6.0 6.0 5.8 5.7 5.6 5.4 5.3 5.3 5.3 5.3 5.3 6.2 6.4 6.3 6.1 6.1 6.4 6.2 5.9 5.6
5.6 5.6 6.1 5.9 5.9 5.9 5.8 5.5 5.4 5.5 5.6 5.6 5.6 5.5 5.5 5.6 5.6 5.5 5.4 5.4 5.4 5.4 5.4 5.4 5.4 5.6 5.7 5.6 5.5 5.6 5.5 5.4 5.2 5.1 5.1 4.9 6.0 5.9 5.9 5.8 6.0 5.9 5.6 5.4
5.2 5.5 5.5 5.9 5.8 5.9 5.9 5.9 5.6 5.6 5.6 5.6 5.6 5.6 5.6 5.5 5.6 5.7 5.8 5.7 5.5 5.3 5.1 5.0 5.0 5.1 5.1 5.2 5.4 5.4 5.3 5.2 4.9 4.7 4.7 5.5 5.7 5.5 5.3 5.2 5.7 5.7 5.6 5.5
5.2 5.1 5.3 5.5 5.7 5.7 5.8 5.9 5.8 5.5 5.6 5.7 5.6 5.5 5.5 5.6 5.5 5.4 5.3 5.4 5.5 5.5 5.2 5.0 5.0 4.9 5.0 5.0 5.0 4.9 4.7 4.6 4.7 4.3 4.0 4.3 5.4 5.3 5.1 5.3 5.2 5.2 5.2 5.2
5.1 5.1 5.0 5.1 5.3 5.5 5.6 5.6 5.7 5.6 5.5 5.5 5.5 5.5 5.4 5.3 5.3 5.1 5.2 5.0 4.9 4.9 4.9 4.8 4.6 4.5 4.4 4.5 4.5 4.9 4.7 5.0 4.8 4.8 5.3 5.4 5.3 5.0 5.0 5.0 4.9 4.9 4.9 5.0
4.6 4.9 5.0 5.0 4.9 5.1 5.1 5.2 5.2 5.5 5.4 5.4 5.5 5.4 5.3 5.1 5.0 4.9 4.7 4.8 4.7 4.6 4.6 4.4 4.3 4.3 4.2 4.1 4.5 4.5 4.6 4.3 4.4 4.6 5.3 5.3 5.1 5.1 5.0 5.0 4.9 4.9 4.9 4.8
4.7 4.4 4.5 4.9 4.9 4.7 4.8 4.8 4.7 4.8 5.0 5.3 5.4 5.3 5.2 4.9 4.9 4.8 4.8 4.5 4.4 4.3 4.2 4.0 4.0 4.0 4.1 4.0 3.9 3.9 3.9 4.0 4.4 5.0 5.3 5.0 5.2 5.3 5.0 4.9 5.0 4.9 4.9 4.9
4.8 4.4 4.1 4.0 4.8 4.9 4.9 4.7 4.7 4.6 4.5 5.0 5.3 5.2 5.1 5.0 4.7 4.4 4.5 4.4 4.2 3.9 3.8 3.9 3.8 3.8 3.7 4.3 4.4 5.7 5.1 5.3 5.1 5.0 5.0 5.0 5.2 5.2 5.2 5.4 5.4 5.4 5.4 5.3
4.8 4.7 4.4 3.7 3.7 4.6 4.6 4.8 4.5 4.4 4.3 4.2 4.9 5.4 5.4 5.3 5.2 4.8 4.3 3.9 3.8 3.6 3.6 3.6 3.9 3.9 3.2 3.3 4.6 6.8 5.9 5.3 4.7 4.6 4.6 4.8 4.9 5.0 5.1 5.3 5.2 5.2 5.2 5.3
4.8 4.8 4.5 4.0 3.5 3.5 4.0 4.3 4.4 4.3 3.9 3.7 4.1 5.0 5.5 5.4 5.5 5.2 4.9 4.3 3.7 3.4 3.3 3.8 3.5 3.3 2.6 3.1 5.2 5.7 5.5 5.8 5.8 5.7 5.6 5.8 5.3 5.2 5.2 5.3 5.5 5.6 5.6 5.6
4.9 4.6 4.5 4.3 3.7 3.4 3.3 3.6 3.7 3.8 3.7 3.2 3.7 4.7 5.4 5.4 5.3 5.0 4.8 4.6 4.2 3.9 3.6 3.8 3.9 3.5 3.0 4.2 5.7 5.8 5.9 5.9 5.7 5.6 5.7 6.0 6.1 5.7 5.6 5.7 5.7 5.7 5.6 5.5
4.6 4.6 4.4 4.3 4.3 3.8 3.4 2.8 2.6 2.7 2.7 2.2 3.0 4.5 5.0 5.3 5.3 5.0 4.6 4.3 4.3 4.1 4.1 3.8 3.7 4.4 5.1 5.7 5.6 5.5 5.4 5.5 5.5 5.3 5.2 5.3 6.1 6.5 6.1 5.8 5.8 6.0 6.1 6.1
4.5 4.4 4.3 4.0 4.2 4.1 3.7 3.3 2.6 2.4 2.6 2.1 3.4 4.2 3.5 4.1 4.3 4.2 3.9 3.9 4.1 3.7 4.3 4.2 4.3 6.2 6.5 6.2 5.6 5.3 4.9 5.0 5.1 5.1 5.1 5.0 5.6 6.3 6.4 6.1 5.9 5.9 6.0 5.9
4.8 4.4 4.0 3.8 3.4 3.1 3.4 3.2 3.2 2.8 2.7 3.3 4.0 3.6 2.8 3.1 2.7 2.9 3.1 3.3 3.6 3.3 3.9 3.7 3.9 5.9 6.0 5.5 5.2 5.0 5.2 5.4 5.3 5.2 5.2 5.1 4.7 5.6 6.2 6.2 6.2 6.0 5.7 5.4
4.3 4.0 4.1 3.6 3.3 2.9 3.4 3.2 3.7 4.2 3.6 3.7 4.0 4.0 3.4 2.7 2.4 2.2 2.4 2.7 3.0 3.1 3.0 3.0 4.0 5.6 5.3 5.1 4.8 4.9 5.2 5.3 5.4 5.4 5.4 5.2 4.7 4.9 5.4 5.7 5.7 5.7 5.6 5.5
4.6 4.0 3.9 3.4 3.6 2.9 2.0 3.5 5.2 5.1 5.0 5.2 4.7 4.1 3.5 3.0 2.9 2.4 2.8 2.6 2.4 2.5 2.7 3.3 4.6 4.7 4.6 4.6 4.7 4.9 5.0 5.2 5.2 5.2 5.2 5.1 5.0 4.8 4.8 5.0 5.4 5.6 5.4 5.2
4.5 4.3 3.5 3.9 3.5 3.3 4.3 5.4 6.3 5.9 5.5 5.2 5.2 4.8 4.0 3.4 3.3 3.2 3.3 2.7 2.7 2.6 2.8 4.4 5.0 4.9 4.8 4.7 4.7 4.7 4.9 5.0 5.0 5.1 5.2 5.0 5.0 5.0 5.1 5.2 5.1 5.0 5.2 5.2
4.6 4.1 4.5 3.7 4.0 4.5 5.4 5.7 5.7 5.5 5.1 5.1 4.9 4.5 4.3 4.3 3.9 3.9 3.8 3.6 3.4 3.4 4.7 5.1 5.1 5.0 4.8 4.7 4.7 4.7 4.8 4.9 5.1 5.0 5.0 5.1 5.1 5.1 5.1 5.1 5.2 5.1 5.1 5.0
4.7 4.5 4.4 3.9 4.7 5.4 5.8 6.1 5.6 5.3 5.1 4.7 4.5 4.3 3.9 4.0 4.3 4.4 4.8 4.3 4.9 5.0 4.9 4.9 4.9 4.8 4.7 4.6 4.6 4.6 4.7 4.7 4.7 4.9 4.8 4.7 4.7 4.7 4.9 4.9 5.0 5.1 5.0 4.7
4.5 5.1 5.3 4.9 4.8 5.7 6.1 5.8 5.1 5.0 4.8 4.5 4.3 4.1 4.7 4.0 4.0 4.7 5.5 6.1 5.9 5.1 5.0 4.8 4.7 4.6 4.5 4.4 4.5 4.5 4.5 4.5 4.2 4.3 4.5 4.5 4.7 4.8 4.7 4.7 4.8 4.9 4.9 4.9
Wind_Speed
8 8 10 10 14 14 8 2 4 5 5 5 3 3 3 2 3 1 1 1 3 3 3 2 1 2 4 5 5 3 4 2 4 6 1 2 1 1 2 2 3 1 1 3
11 9 9 9 10 12 2 3 1 4 4 4 3 3 3 3 4 3 1 1 2 2 3 2 2 3 3 6 5 3 3 1 4 6 4 4 3 3 3 2 2 1 1 3
16 13 11 8 5 4 4 3 4 4 4 1 3 4 4 3 1 2 2 3 3 2 3 1 1 1 1 5 4 2 2 1 4 4 5 1 5 5 4 2 2 2 3 2
21 19 16 13 3 5 4 4 0 2 3 4 3 1 4 4 6 6 8 5 6 2 3 2 2 3 4 2 3 2 2 3 2 6 7 3 4 4 5 2 2 3 4 4
22 23 22 17 0 6 4 3 3 2 1 2 5 8 7 7 5 6 5 5 5 6 3 1 2 1 1 2 3 2 0 2 1 4 3 3 5 6 3 1 1 2 3 4
20 25 26 22 8 3 3 0 1 3 4 4 4 3 4 6 3 1 2 2 1 3 1 5 6 5 3 4 3 2 0 1 2 5 4 6 6 5 3 2 4 4 4 3
16 21 26 25 20 6 3 2 3 4 2 3 1 2 1 3 2 1 3 1 1 2 3 3 2 4 6 4 5 3 1 2 2 4 4 3 4 1 2 4 6 5 3 4
12 16 21 25 19 14 2 3 3 3 2 2 2 3 2 3 4 2 2 2 2 3 4 3 4 4 3 1 2 3 3 3 1 1 2 7 1 3 4 4 5 7 5 3
12 13 16 19 21 10 3 2 0 3 5 4 4 1 1 0 2 5 2 3 4 5 3 3 1 3 2 4 7 3 3 3 3 1 0 4 3 2 2 2 5 4 5 5
14 10 13 16 18 12 3 2 3 2 3 3 5 3 4 4 2 2 3 4 5 3 3 3 1 3 1 3 3 2 2 2 3 3 3 8 4 4 3 2 5 4 5 6
14 14 10 12 16 13 4 2 3 2 2 3 7 7 5 2 2 3 2 2 2 2 3 2 2 3 3 2 4 3 3 3 4 2 2 7 6 3 6 5 1 3 4 4
12 14 12 9 11 12 1 0 1 2 1 2 3 5 3 3 2 4 1 2 2 4 3 1 2 3 1 3 4 1 3 6 4 8 6 4 7 6 4 3 4 4 4 5
12 11 9 8 9 9 2 1 1 2 2 3 2 6 1 3 2 1 2 2 2 2 2 3 2 5 4 4 5 3 4 3 4 1 4 8 10 6 5 6 6 4 3 5
10 12 9 6 7 8 3 1 1 2 1 1 4 1 3 1 4 3 2 1 3 3 2 1 2 2 3 3 3 4 4 6 4 7 9 7 10 9 6 7 6 5 3 5
7 11 11 8 6 3 2 1 0 1 3 3 4 2 1 2 5 4 2 2 2 1 1 2 4 2 2 2 1 4 6 7 5 6 6 3 6 5 6 9 9 9 7 4
7 7 11 12 11 6 2 3 1 2 1 2 3 1 2 2 3 3 2 1 1 2 3 3 3 2 2 2 4 8 7 4 5 4 1 4 5 5 1 4 5 5 6 5
6 7 6 8 9 1 2 3 3 2 1 2 4 3 1 2 3 1 2 1 2 2 2 2 1 2 3 3 5 6 8 8 7 7 3 5 5 4 5 4 6 7 4 4
6 6 6 4 3 2 3 2 3 5 3 2 2 4 2 4 3 2 1 2 1 2 2 1 2 0 0 5 10 5 6 7 7 7 9 3 1 4 5 3 5 5 5 5
5 3 0 3 1 2 3 2 3 3 3 2 3 3 4 2 1 2 1 1 1 1 3 3 3 3 6 9 7 7 7 5 4 0 5 6 6 6 6 6 6 7 7 6
6 3 2 3 3 2 2 3 2 3 2 1 3 1 2 3 0 1 3 0 2 2 3 3 3 5 12 12 10 7 6 7 5 4 4 5 5 8 8 10 7 6 6 5
1 3 3 1 3 1 2 1 2 0 3 3 2 4 3 2 3 3 2 3 1 1 4 3 3 4 5 5 4 4 6 7 9 9 5 7 6 8 8 6 7 7 7 6
4 4 3 2 2 2 2 3 1 4 5 1 3 3 3 1 1 2 2 2 2 5 1 0 4 5 6 3 5 6 6 6 8 8 8 7 7 6 7 6 7 6 6 7
3 3 3 3 1 1 7 8 4 3 5 4 3 1 1 1 1 2 2 2 5 2 1 4 5 4 4 5 4 6 4 3 3 5 2 1 1 2 4 5 4 8 7 6
3 5 6 7 5 7 7 4 4 4 4 6 4 3 3 1 2 2 2 2 2 2 3 6 3 5 3 3 2 2 2 3 3 3 4 5 4 4 5 7 6 7 6 6
4 5 7 9 4 2 1 1 1 2 5 6 4 3 2 2 2 1 2 3 4 6 5 3 3 4 2 2 1 4 5 4 4 3 3 4 6 5 4 5 7 7 6 6
3 4 2 1 2 3 2 2 2 3 5 2 3 4 3 4 5 4 8 4 6 4 4 3 2 2 2 3 3 4 4 4 5 5 5 6 7 7 6 6 6 6 7 6
5 5 3 3 1 3 3 5 4 5 3 3 3 6 8 3 1 4 6 6 4 4 4 3 4 4 3 4 3 3 4 5 6 5 6 5 5 5 5 7 7 6 6 6
Wind_Direction
4 359 343 350 351 352 50 45 38 319 356 55 29 58 9 342 22 309 39 98 100 128 168 147 46 226 228 174 153 205 209 193 272 233 37 359 130 173 227 150 292 249 217 291
354 360 346 347 4 16 81 67 297 322 45 66 17 346 28 360 10 359 11 82 102 147 156 66 210 230 269 173 164 230 178 248 335 353 12 12 39 309 238 196 48 262 125 296
356 350 345 343 358 59 78 66 33 345 52 67 54 12 9 50 352 81 60 34 62 96 75 168 328 284 277 181 214 185 124 161 179 197 233 246 307 318 328 163 121 196 216 278
351 342 341 338 357 110 91 33 292 205 352 353 18 20 2 24 12 353 29 46 35 334 51 38 9 324 324 227 315 107 140 252 185 247 244 246 249 264 330 98 234 161 200 193
356 349 342 342 50 107 79 95 108 56 359 303 15 12 357 22 356 26 358 57 357 34 66 347 311 337 27 301 324 205 215 263 207 281 231 278 273 274 294 247 162 82 163 247
3 358 353 346 318 41 99 118 40 102 322 6 55 342 340 346 316 70 126 243 256 30 256 228 237 225 250 242 304 288 281 115 48 272 350 326 317 220 204 246 198 176 197 235
2 4 2 355 349 338 115 173 117 75 351 58 133 329 302 347 319 248 305 360 118 228 287 214 229 225 240 248 262 208 163 92 80 266 356 5 251 168 185 228 253 223 255 232
355 360 6 8 358 359 53 152 124 117 105 180 301 336 336 321 306 320 288 308 278 325 12 30 0 345 335 203 181 219 178 136 36 88 249 282 311 215 178 174 286 198 196 174
343 357 0 6 9 350 37 317 100 113 121 241 170 185 3 346 326 350 306 329 316 35 54 48 61 249 229 305 328 127 91 73 126 110 314 253 241 203 188 134 297 187 170 170
329 340 356 356 11 23 73 299 326 83 131 220 154 188 181 156 158 205 280 318 4 38 43 44 348 290 261 304 286 273 311 358 193 193 245 285 233 184 158 127 236 182 186 186
327 325 340 356 3 16 91 267 26 28 163 230 185 181 156 142 188 172 250 46 328 52 75 144 217 200 248 304 240 216 210 159 215 124 234 289 164 100 174 216 225 199 203 204
326 327 327 358 15 13 62 13 70 64 139 265 236 234 246 227 206 153 165 200 173 195 102 203 122 245 233 191 275 197 255 193 193 186 217 227 207 206 214 168 185 212 201 201
318 322 330 353 10 15 65 189 321 63 65 314 344 240 260 85 190 79 157 282 182 186 182 160 176 239 138 208 237 239 249 169 226 10 250 232 230 230 217 191 215 220 226 181
313 310 316 340 4 20 46 81 185 98 98 188 283 13 265 138 139 136 136 160 53 87 80 146 179 218 164 235 264 214 212 147 212 261 279 277 264 239 215 205 200 175 159 179
297 305 309 312 327 341 42 111 229 207 140 227 276 308 245 144 146 168 147 137 122 137 119 152 226 219 157 212 299 238 185 199 182 227 239 213 265 306 200 190 194 190 164 154
275 293 304 310 310 309 45 348 354 351 173 77 306 284 158 131 149 158 195 202 163 161 182 227 256 298 165 246 246 248 211 223 204 247 306 226 288 298 239 213 197 171 176 171
254 280 293 310 336 102 173 198 202 155 93 61 312 305 271 133 109 88 134 117 230 188 242 231 241 264 186 245 244 232 216 224 235 221 183 265 207 240 182 173 169 164 143 153
225 262 281 278 309 348 298 240 149 126 96 82 240 271 328 175 165 189 155 150 87 230 258 273 204 357 193 258 243 259 258 276 267 243 214 234 19 129 160 121 128 138 154 155
209 252 196 37 110 225 239 126 81 90 140 217 156 184 245 134 133 114 76 123 219 170 222 237 148 207 224 234 235 234 226 218 250 230 195 185 196 197 166 153 166 171 191 187
160 99 91 270 227 220 138 36 24 9 273 313 221 70 226 123 143 179 113 79 226 250 239 124 212 258 260 261 238 235 247 253 200 176 237 213 213 191 188 199 194 191 176 161
134 157 217 227 330 16 41 225 142 331 281 199 227 184 155 218 120 195 216 181 145 300 249 179 252 265 244 248 233 212 251 243 225 228 261 208 198 190 192 193 188 174 167 172
176 148 91 51 62 31 127 214 316 182 232 233 164 204 159 173 339 93 251 160 93 235 115 175 261 252 249 240 252 279 277 268 250 212 222 235 229 212 184 166 161 162 161 164
66 65 98 114 235 331 205 202 216 206 190 178 154 78 70 75 94 59 99 145 224 87 102 234 234 256 275 262 269 288 256 290 226 167 176 224 243 128 143 142 150 167 165 163
174 165 213 191 207 236 203 205 175 176 129 148 130 109 119 348 72 156 130 250 45 336 256 235 246 238 225 218 258 242 271 206 184 163 172 176 143 163 165 167 147 138 156 166
198 179 218 209 218 266 239 38 95 193 148 133 104 63 113 133 109 217 52 4 256 220 235 242 238 225 210 256 240 234 235 214 209 172 162 180 176 174 139 149 153 154 155 167
211 240 268 185 93 246 188 169 255 180 153 93 77 122 107 227 148 139 210 173 231 252 225 242 276 222 231 248 243 236 225 215 219 199 193 181 175 175 168 153 168 172 165 179
208 232 218 180 166 213 182 151 188 164 149 177 132 153 200 117 113 229 186 209 222 235 259 219 219 209 217 219 229 225 208 214 223 219 204 197 160 134 144 181 198 190 184 170